SRV160M LEIB-LEPA

Flight info

Callsign SRV160M
Flight time N/A
Altitude 8000
Route LAMPA
Aircraft E195/M-SDE3GILORVW/S

Departure

Time 2026-04-30 22:48
Airport Ibiza Airport (LEIB)

Arrival

Time N/A
Airport Palma de Mallorca Airport (LEPA)
Time Latitude Longitude Altitude Speed Heading
2026-04-30 22:47 38.86852 1.36266 26 ft 68 kts 62°
2026-04-30 22:47 38.87750 1.38419 390 ft 183 kts 60°
2026-04-30 22:48 38.88747 1.41922 2072 ft 235 kts 79°
2026-04-30 22:49 38.89639 1.47614 4445 ft 216 kts 77°
2026-04-30 22:49 38.90707 1.53440 6593 ft 232 kts 77°
2026-04-30 22:50 38.90136 1.62246 8864 ft 261 kts 98°
2026-04-30 22:51 38.89463 1.66888 9948 ft 268 kts 113°
2026-04-30 22:51 38.87931 1.71156 10050 ft 251 kts 118°
2026-04-30 22:52 38.87213 1.73122 10003 ft 236 kts 118°
2026-04-30 22:52 38.85848 1.76836 9561 ft 232 kts 117°
2026-04-30 22:53 38.84497 1.80531 8923 ft 224 kts 117°
2026-04-30 22:53 38.83213 1.84055 8891 ft 227 kts 117°
2026-04-30 22:53 38.82554 1.85869 8901 ft 222 kts 117°
2026-04-30 22:54 38.81261 1.89425 8915 ft 216 kts 117°
2026-04-30 22:55 38.81604 1.94882 8926 ft 220 kts 52°
2026-04-30 22:55 38.83524 1.97951 8959 ft 221 kts 51°
2026-04-30 22:56 38.85422 2.01051 8962 ft 221 kts 51°
2026-04-30 22:56 38.88256 2.05716 8963 ft 221 kts 51°
2026-04-30 22:57 38.90150 2.08843 8913 ft 222 kts 51°
2026-04-30 22:57 38.92032 2.11958 8909 ft 221 kts 51°
2026-04-30 22:58 38.93913 2.15075 8910 ft 221 kts 51°
2026-04-30 22:59 38.96732 2.19750 8911 ft 221 kts 51°
2026-04-30 22:59 38.99550 2.24432 8910 ft 220 kts 51°